W1JCN Weather Reports


time (UTC)temp
C
wind
direction
speed
KPH
gust
KPH
rain 1hr
cm
rain 24hr
cm
rain mn
cm
humidity
%
barometer
mb
20260902204512 18 219 0.0 8.0 0.00 0.03 0.00 88 1018.6
20260902203611 18 199 1.6 8.0 0.00 0.03 0.00 87 1018.6
20260902202711 18 192 1.6 9.7 0.00 0.03 0.00 87 1018.8
20260902201811 18 212 0.0 4.8 0.00 0.05 0.00 87 1018.9
20260902200911 18 222 1.6 8.0 0.00 0.05 0.00 86 1019.0
20260902200011 18 217 1.6 8.0 0.00 0.05 0.00 86 1018.9
20260902195110 18 222 0.0 4.8 0.00 0.05 0.00 88 1018.9
20260902194210 18 231 0.0 9.7 0.00 0.05 0.00 88 1018.8
20260902193311 18 221 0.0 4.8 0.00 0.05 0.00 88 1019.2
20260902192411 18 206 1.6 11.3 0.00 0.05 0.00 86 1019.4
20260902191511 18 196 1.6 6.4 0.00 0.05 0.00 86 1019.4
20260902185710 18 197 1.6 8.0 0.00 0.05 0.00 88 1019.4
20260902184811 18 200 1.6 8.0 0.00 0.05 0.00 86 1019.7
20260902183911 18 204 1.6 8.0 0.00 0.08 0.00 87 1019.7
20260902183010 18 209 1.6 9.7 0.00 0.08 0.00 87 1019.8
20260902182111 18 202 1.6 11.3 0.00 0.08 0.00 88 1019.8
20260902181210 18 204 1.6 14.5 0.00 0.08 0.00 88 1019.7
20260902180311 17 176 1.6 9.7 0.00 0.10 0.00 89 1019.6
20260902175410 17 207 1.6 9.7 0.00 0.10 0.00 89 1019.8
20260902174510 17 223 1.6 8.0 0.00 0.10 0.00 90 1019.7
20260902172710 17 207 1.6 8.0 0.00 0.15 0.00 90 1019.8
20260902171810 17 215 0.0 4.8 0.00 0.18 0.00 90 1020.0
20260902170911 17 215 0.0 4.8 0.00 0.18 0.00 89 1020.0
20260902170010 17 219 1.6 8.0 0.00 0.18 0.00 89 1020.0
20260902165110 17 239 0.0 6.4 0.00 0.18 0.00 89 1019.9
20260902164210 17 203 1.6 6.4 0.00 0.18 0.00 88 1020.1
20260902163310 17 210 3.2 9.7 0.00 0.18 0.00 88 1020.0
20260902162410 17 196 1.6 6.4 0.00 0.18 0.00 88 1019.8
20260902161510 17 217 1.6 6.4 0.00 0.18 0.00 89 1019.8
20260902160610 17 222 0.0 4.8 0.00 0.18 0.00 88 1020.1
20260902155710 17 175 1.6 8.0 0.00 0.18 0.00 88 1020.2
20260902154810 17 223 1.6 9.7 0.00 0.20 0.00 88 1020.3
20260902153910 17 223 1.6 6.4 0.00 0.20 0.00 90 1020.3
20260902152110 17 190 1.6 6.4 0.00 0.20 0.00 91 1020.6
20260902145410 16 192 1.6 8.0 0.00 0.20 0.00 90 1020.8
20260902144510 16 202 1.6 6.4 0.00 0.20 0.00 92 1020.7
20260902143610 16 186 1.6 8.0 0.00 0.20 0.00 93 1020.5
20260902142710 16 175 1.6 11.3 0.00 0.20 0.00 94 1020.5
20260902141810 16 205 1.6 8.0 0.00 0.20 0.00 94 1020.4
20260902140910 16 204 0.0 4.8 0.00 0.20 0.00 94 1020.3
20260902135110 15 204 0.0 4.8 0.00 0.20 0.00 94 1020.3
20260902134210 15 205 0.0 6.4 0.00 0.20 0.00 94 1020.2
20260902133310 15 210 0.0 9.7 0.00 0.20 0.00 94 1020.2
20260902132410 15 212 0.0 4.8 0.00 0.20 0.00 94 1019.8
20260902131510 15 211 0.0 4.8 0.00 0.20 0.00 94 1019.6
20260902125710 15 211 1.6 9.7 0.00 0.20 0.00 95 1019.9
20260902124810 15 211 1.6 9.7 0.00 0.25 0.00 95 1019.8
20260902123910 15 206 1.6 4.8 0.00 0.25 0.00 95 1019.8
20260902123010 15 181 0.0 3.2 0.00 0.28 0.00 94 1019.9
20260902122110 15 179 0.0 4.8 0.00 0.30 0.00 95 1020.0
20260902121210 15 0 0.0 0.0 0.00 0.30 0.00 95 1019.9
20260902120310 15 178 0.0 1.6 0.00 0.36 0.00 94 1019.8
20260902115410 14 0 0.0 0.0 0.00 0.36 0.00 94 1019.9
20260902114510 14 0 0.0 0.0 0.00 0.46 0.00 95 1020.0
20260902113610 14 0 0.0 0.0 0.00 0.48 0.00 94 1019.8
20260902110909 14 0 0.0 0.0 0.00 0.53 0.00 94 1020.2
20260902110010 14 0 0.0 0.0 0.00 0.53 0.00 94 1020.3
20260902104210 14 0 0.0 0.0 0.00 0.56 0.00 94 1019.8
20260902103310 14 0 0.0 0.0 0.00 0.56 0.00 94 1019.9
20260902102410 14 0 0.0 0.0 0.00 0.56 0.00 94 1019.8
20260902100609 14 0 0.0 0.0 0.00 0.56 0.00 94 1019.4
20260902095710 14 0 0.0 0.0 0.00 0.56 0.00 94 1019.4
20260902093909 14 0 0.0 0.0 0.00 0.56 0.00 94 1019.3
20260902093009 14 0 0.0 0.0 0.00 0.56 0.00 94 1019.3
20260902092109 14 0 0.0 0.0 0.00 0.56 0.00 94 1019.3
20260902091209 14 0 0.0 0.0 0.00 0.56 0.00 94 1019.2
20260902085409 14 0 0.0 0.0 0.00 0.56 0.00 94 1019.0
20260902083609 14 0 0.0 0.0 0.00 0.56 0.00 94 1019.2
20260902081809 14 0 0.0 0.0 0.00 0.56 0.00 94 1019.1
20260902080009 14 0 0.0 0.0 0.00 0.56 0.00 94 1019.2
20260902075109 14 0 0.0 0.0 0.00 0.56 0.00 94 1019.1
20260902074210 14 0 0.0 0.0 0.00 0.56 0.00 94 1019.0
20260902073309 14 0 0.0 0.0 0.00 0.56 0.00 94 1019.0
20260902072409 14 0 0.0 0.0 0.00 0.56 0.00 94 1019.0
20260902071509 14 0 0.0 0.0 0.00 0.56 0.00 94 1019.3
20260902070609 14 0 0.0 0.0 0.00 0.56 0.00 94 1019.4
20260902065709 15 0 0.0 0.0 0.00 0.56 0.00 94 1019.5
20260902064809 15 0 0.0 0.0 0.00 0.56 0.00 94 1019.4
20260902063909 15 0 0.0 0.0 0.00 0.56 0.00 94 1019.3
20260902062109 15 0 0.0 0.0 0.00 0.56 0.00 94 1019.1
20260902061209 15 0 0.0 0.0 0.00 0.56 0.00 94 1019.1
20260902060309 15 0 0.0 0.0 0.00 0.56 0.00 94 1019.1
20260902054509 15 0 0.0 0.0 0.00 0.56 0.00 94 1019.0
20260902053609 15 0 0.0 0.0 0.00 0.56 0.00 94 1018.8
20260902052709 15 0 0.0 0.0 0.00 0.56 0.00 94 1018.7
20260902051809 15 0 0.0 0.0 0.00 0.56 0.00 94 1018.6
20260902050909 15 0 0.0 0.0 0.00 0.56 0.00 94 1018.6
20260902050009 15 0 0.0 0.0 0.00 0.56 0.00 94 1018.5
20260902045109 15 0 0.0 0.0 0.00 0.56 0.00 94 1018.6
20260902044209 15 0 0.0 0.0 0.00 0.56 0.00 94 1018.3
20260902043309 15 0 0.0 0.0 0.00 0.56 0.00 94 1018.2
20260902042409 15 0 0.0 0.0 0.00 0.56 0.00 94 1018.1
20260902041509 15 0 0.0 0.0 0.00 0.56 0.00 94 1017.9
20260902040609 15 0 0.0 0.0 0.00 0.56 0.00 94 1017.8
20260902035709 15 0 0.0 0.0 0.00 0.56 0.56 94 1017.8
20260902034809 15 0 0.0 0.0 0.00 0.56 0.56 94 1017.9
20260902033909 15 0 0.0 0.0 0.00 0.56 0.56 94 1017.8
20260902033009 15 0 0.0 0.0 0.00 0.56 0.56 94 1018.0
20260902030309 15 0 0.0 0.0 0.00 0.56 0.56 94 1018.0
20260902025409 15 0 0.0 0.0 0.00 0.56 0.56 94 1017.9
20260902024508 15 0 0.0 0.0 0.00 0.56 0.56 94 1017.7
20260902023609 15 0 0.0 0.0 0.00 0.56 0.56 94 1017.4
20260902022709 15 188 0.0 1.6 0.00 0.56 0.56 94 1017.6
20260902021809 15 0 0.0 0.0 0.00 0.56 0.56 94 1017.6
20260902020909 15 187 0.0 1.6 0.00 0.56 0.56 94 1017.7
20260902014209 15 186 0.0 6.4 0.00 0.56 0.56 94 1017.7
20260902013309 15 0 0.0 0.0 0.00 0.56 0.56 94 1017.7
20260902010608 15 0 0.0 0.0 0.00 0.56 0.56 94 1017.5
20260902004808 15 148 0.0 4.8 0.00 0.56 0.56 94 1017.4
20260902003908 15 138 0.0 4.8 0.00 0.56 0.56 94 1017.4
20260902003008 15 193 0.0 6.4 0.00 0.56 0.56 94 1017.0
20260902002108 15 0 0.0 0.0 0.00 0.56 0.56 94 1017.1
20260902001208 15 168 0.0 1.6 0.00 0.56 0.56 94 1016.9
20260902000308 16 165 0.0 4.8 0.00 0.56 0.56 94 1016.9
20260901235408 16 161 0.0 3.2 0.00 0.56 0.56 94 1016.7
20260901234508 16 161 0.0 1.6 0.00 0.56 0.56 94 1016.7
20260901233608 16 0 0.0 0.0 0.00 0.56 0.56 94 1016.5
20260901231808 16 161 0.0 1.6 0.00 0.56 0.56 94 1016.7
20260901230908 16 161 0.0 1.6 0.00 0.56 0.56 94 1016.6
20260901230008 16 161 0.0 1.6 0.03 0.56 0.56 94 1016.6
20260901225108 16 161 0.0 1.6 0.03 0.56 0.56 94 1016.6
20260901224208 16 0 0.0 0.0 0.03 0.56 0.56 94 1016.7
20260901223308 16 161 0.0 1.6 0.03 0.56 0.56 94 1016.7
20260901222408 16 161 0.0 1.6 0.03 0.56 0.56 94 1016.8
20260901221508 16 161 0.0 1.6 0.03 0.56 0.56 94 1016.8
20260901215708 16 162 0.0 3.2 0.00 0.53 0.53 94 1016.5
20260901214808 16 162 0.0 3.2 0.00 0.53 0.53 94 1016.4
20260901213008 16 0 0.0 0.0 0.00 0.53 0.53 94 1016.3
20260901212108 16 0 0.0 0.0 0.03 0.53 0.53 94 1016.3
20260901211208 16 0 0.0 0.0 0.03 0.53 0.53 94 1016.3
20260901210308 16 210 0.0 3.2 0.03 0.53 0.53 94 1016.3
20260901205408 16 210 0.0 1.6 0.03 0.53 0.53 94 1016.2